This demonstration page uses our WeatherBlox Daily Observations layout. Learn more.

Left ArrowRight Arrow

Hourly Observations for July 3, 2021

Temp ( °F °C ) Dew Point ( °F °C ) Humidity (%) Winds ( mph kmh ) Pressure ( in mb ) Visibility ( mi km ) Precip ( " mm )
12:15 am 00:15 Clear 69 20.8 62 16.5 77 77 SE 7 11 30.02 1017 10 16 N/A
12:35 am 00:35 Clear 69 20.5 62 16.5 78 78 SE 8 13 30.03 1017 10 16 N/A
12:55 am 00:55 Clear 69 20.3 61 16.3 78 78 SE 8 13 30.03 1017 10 16 N/A
1:15 am 01:15 Clear 68 20 61 16.1 78 78 SE 8 13 30.03 1017 10 16 N/A
1:35 am 01:35 Clear 67 19.7 61 16 79 79 SE 8 13 30.02 1017 10 16 N/A
1:55 am 01:55 Clear 65 18.5 61 15.9 85 85 SE 5 7 30.03 1017 10 16 N/A
2:15 am 02:15 Clear 66 19 61 16 83 83 SE 7 11 30.03 1017 10 16 N/A
2:35 am 02:35 Clear 66 18.7 61 16 84 84 SE 6 9 30.03 1017 10 16 N/A
2:55 am 02:55 Clear 65 18.5 61 15.9 85 85 SSE 7 11 30.02 1017 10 16 N/A
3:15 am 03:15 Clear 65 18.1 61 16 88 88 SSE 7 11 30.03 1017 10 16 N/A
3:35 am 03:35 Clear 64 17.7 61 16 90 90 SSE 6 9 30.03 1017 10 16 N/A
3:55 am 03:55 Clear 64 18 61 16.2 89 89 SE 6 9 30.03 1017 10 16 N/A
4:15 am 04:15 Clear 64 17.8 61 16.1 90 90 SSE 6 9 30.02 1017 10 16 N/A
4:35 am 04:35 Clear 65 18.2 62 16.5 90 90 SSE 7 11 30.02 1017 10 16 N/A
4:55 am 04:55 Clear 65 18.3 62 16.5 89 89 S 8 13 30.02 1016 10 16 N/A
5:15 am 05:15 Clear 64 18 62 16.5 91 91 S 6 9 30.02 1017 10 16 N/A
5:35 am 05:35 Clear 64 18 62 16.5 91 91 SSE 7 11 30.02 1017 10 16 N/A
5:55 am 05:55 Clear 64 18 62 16.5 91 91 SSE 6 9 30.02 1017 10 16 N/A
6:15 am 06:15 Sunny 64 17.7 62 16.5 93 93 S 6 9 30.02 1017 10 16 N/A
6:35 am 06:35 Sunny 64 17.8 62 16.5 92 92 S 6 9 30.01 1016 10 16 N/A
6:55 am 06:55 Sunny 65 18.2 62 16.7 91 91 S 5 7 30.02 1017 10 16 N/A
7:15 am 07:15 Sunny 66 18.9 63 17.1 89 89 S 5 7 30.01 1016 10 16 N/A
7:35 am 07:35 Sunny 67 19.7 64 17.5 87 87 S 8 13 30.00 1016 10 16 N/A
7:55 am 07:55 Sunny 69 20.5 64 17.7 84 84 S 7 11 30.00 1016 10 16 N/A
8:15 am 08:15 Sunny 70 21.3 64 17.9 81 81 S 8 13 29.98 1015 10 16 N/A
8:35 am 08:35 Sunny 72 22.3 65 18.1 77 77 S 9 15 29.97 1015 10 16 N/A
8:55 am 08:55 Sunny 74 23.2 64 18 73 73 SSW 12 19 29.96 1015 10 16 N/A
9:15 am 09:15 Sunny 76 24.4 65 18.5 70 70 S 9 15 29.96 1015 10 16 N/A
9:35 am 09:35 Sunny 77 24.9 65 18.5 68 68 SSW 12 19 29.96 1015 10 16 N/A
9:55 am 09:55 Sunny 78 25.4 65 18.5 66 66 S 13 20 29.95 1014 10 16 N/A
10:15 am 10:15 Sunny 78 25.8 66 18.8 65 65 SSW 12 19 29.94 1014 10 16 N/A
10:35 am 10:35 Partly Cloudy 80 26.5 66 19.1 64 64 S 14 22 29.94 1014 10 16 N/A
10:55 am 10:55 Partly Cloudy 81 27.1 66 19.1 62 62 S 15 24 29.93 1014 10 16 N/A
11:15 am 11:15 Mostly Cloudy 80 26.9 66 18.9 62 62 S 15 24 29.92 1013 10 16 N/A
11:35 am 11:35 Partly Cloudy 80 26.9 65 18.5 60 60 S 15 24 29.92 1013 10 16 N/A
11:55 am 11:55 Partly Cloudy 81 27.1 66 18.8 61 61 S 15 24 29.91 1013 10 16 N/A
12:15 pm 12:15 Mostly Cloudy 83 28.2 64 17.9 54 54 SSW 20 31 29.90 1013 10 16 N/A
12:35 pm 12:35 Partly Cloudy 84 28.9 64 17.6 50 50 S 21 33 29.90 1012 10 16 N/A
12:55 pm 12:55 Mostly Cloudy 83 28.5 64 17.7 52 52 SSW 15 24 29.89 1012 10 16 N/A
1:15 pm 13:15 Mostly Cloudy 85 29.3 64 17.7 50 50 S 18 30 29.88 1012 10 16 N/A
1:35 pm 13:35 Partly Cloudy 85 29.2 64 18 51 51 S 15 24 29.88 1012 10 16 N/A
1:55 pm 13:55 Partly Cloudy 86 29.8 64 17.6 48 48 S 16 26 29.87 1012 10 16 N/A
2:15 pm 14:15 Partly Cloudy 87 30.5 64 17.9 47 47 SSW 17 28 29.86 1011 10 16 N/A
2:35 pm 14:35 Partly Cloudy 87 30.4 64 18 47 47 S 15 24 29.86 1011 10 16 N/A
2:55 pm 14:55 Partly Cloudy 87 30.4 65 18.2 48 48 S 16 26 29.85 1011 10 16 N/A
3:15 pm 15:15 Mostly Cloudy 86 30.2 64 17.6 47 47 S 14 22 29.85 1011 10 16 N/A
3:35 pm 15:35 Partly Cloudy 87 30.8 65 18.1 47 47 S 20 31 29.83 1010 10 16 N/A
3:55 pm 15:55 Partly Cloudy 87 30.6 64 17.5 45 45 S 17 28 29.82 1010 10 16 N/A
4:15 pm 16:15 Partly Cloudy 88 31.2 64 17.8 45 45 SSE 17 28 29.81 1009 10 16 N/A
4:35 pm 16:35 Partly Cloudy 88 31.1 64 17.6 44 44 S 15 24 29.81 1009 10 16 N/A
4:55 pm 16:55 Partly Cloudy 89 31.5 64 17.8 44 44 S 14 22 29.80 1009 10 16 N/A
5:15 pm 17:15 Sunny 88 31.1 63 17.3 44 44 S 14 22 29.80 1009 10 16 N/A
5:35 pm 17:35 Partly Cloudy 88 30.9 64 17.6 45 45 S 15 24 29.79 1009 10 16 N/A
5:55 pm 17:55 Sunny 88 31.1 65 18.1 46 46 S 16 26 29.79 1009 10 16 N/A
6:15 pm 18:15 Sunny 87 30.7 64 17.8 46 46 S 15 24 29.78 1009 10 16 N/A
6:35 pm 18:35 Sunny 87 30.6 65 18.1 47 47 SSE 14 22 29.77 1008 10 16 N/A
6:55 pm 18:55 Sunny 87 30.3 64 18 48 48 S 15 24 29.78 1008 10 16 N/A
7:15 pm 19:15 Sunny 86 30.1 64 17.9 48 48 S 13 20 29.77 1008 10 16 N/A
7:35 pm 19:35 Sunny 84 28.7 64 17.6 51 51 SSE 17 28 29.78 1008 10 16 N/A
7:55 pm 19:55 Sunny 83 28.5 64 17.6 52 52 SSE 16 26 29.79 1009 10 16 N/A
8:15 pm 20:15 Sunny 82 27.8 65 18.2 56 56 SSE 12 19 29.80 1009 10 16 N/A
8:35 pm 20:35 Sunny 81 27 64 18 58 58 SSE 10 17 29.80 1009 10 16 N/A
8:55 pm 20:55 Sunny 79 26.2 64 18 61 61 SSE 9 15 29.82 1010 10 16 N/A
9:15 pm 21:15 Clear 78 25.5 64 17.9 63 63 SSE 10 17 29.83 1010 10 16 N/A
9:35 pm 21:35 Clear 77 25 64 17.6 64 64 SSE 9 15 29.84 1010 10 16 N/A
9:55 pm 21:55 Clear 76 24.5 63 17.3 64 64 SSE 10 17 29.85 1011 10 16 N/A
10:15 pm 22:15 Clear 76 24.2 62 16.8 63 63 SSE 10 17 29.87 1011 10 16 N/A
10:35 pm 22:35 Clear 75 23.9 62 16.5 63 63 SSE 10 17 29.86 1011 10 16 N/A
10:55 pm 22:55 Clear 74 23.5 61 16.2 64 64 SSE 10 17 29.86 1011 10 16 N/A
11:15 pm 23:15 Clear 74 23.5 61 16 63 63 SSE 10 17 29.86 1011 10 16 N/A
11:35 pm 23:35 Clear 74 23.4 60 15.5 61 61 SSE 13 20 29.85 1011 10 16 N/A
11:55 pm 23:55 Clear 74 23.3 59 15 60 60 SSE 12 19 29.86 1011 10 16 N/A

Powered by AerisWeather